Location: Baili�vre
(50.0696°N, 4.2409°E)
Time: 16:33:59
(UTC+00:00)

Cosmos 405 Rocket - Pass Details

Date: 08 August 2020
Orbit: 490 x 553 km, 81.3° (Epoch: 19 September)

Event Time Altitude Azimuth Distance (km) Brightness Sun altitude
Exits shadow 20:50:00 22° 121° (ESE) 1,109 3.8 -13.3°
Maximum altitude 20:51:06 26° 92° (E) 1,000 3.7 -13.4°
Drops below altitude 10° 20:54:15 10° 34° (NE) 1,708 5.5 -13.8°
Sets 20:56:37 0° 22° (NNE) 2,605 6.6 -14.0°
